Location: Lobos
(35.3000°S, 59.0940°W)
Time: 06:36:56
(UTC-03:00)

STARLINK-1770 - Pass Details

Date: 21 September 2020
Orbit: 546 x 547 km, 53.0° (Epoch: 22 October)

Event Time Altitude Azimuth Distance (km) Brightness Sun altitude
Rises 19:17:36 0° 213° (SSW) 2,598 7.6 -5.9°
Reaches altitude 10° 19:20:33 10° 188° (S) 1,756 6.4 -6.5°
Drops below altitude 10° 19:25:20 10° 116° (ESE) 1,803 5.7 -7.5°
Enters shadow 19:26:05 - 108° (ESE) 1,993 5.9 -7.7°
Exits shadow 20:01:52 -70° 48° (NE) 12,341 10.4 -14.9°
